�N����,����,����,����,����,�C��,���x,�~����,�S�V����,�ő�u�ԕ���,,,
,,,,,,,,,����,����,����,�N��
yyyy/mm/dd,hh:mm:ss,(16),16����,m/s,��,%,mm,KW/�u,(16),16����,m/s,Time
2015/3/1,1:00:00,13,���k��,1.9,-10,89.1,0,0,12,��,4.7,33
2015/3/1,2:00:00,13,���k��,2.1,-10.5,92.7,0,0,12,��,3.5,38
2015/3/1,3:00:00,12,��,1.5,-11.5,92.8,0,0,9,��쐼,3.9,42
2015/3/1,4:00:00,12,��,1.2,-12.3,92.5,0,0,13,���k��,3.1,27
2015/3/1,5:00:00,13,���k��,1.4,-9.4,91.5,0,0,6,�쓌,2.8,40
2015/3/1,6:00:00,12,��,2.9,-7.2,87.5,0,0,12,��,4.2,56
2015/3/1,7:00:00,13,���k��,2.7,-6.5,84.3,0,0.05,10,�쐼,4.1,59
2015/3/1,8:00:00,13,���k��,3.2,-5.3,79.4,0,0.2,13,���k��,5.7,14
2015/3/1,9:00:00,13,���k��,2,-3.7,75.5,0,0.32,13,���k��,5.5,16
2015/3/1,10:00:00,14,�k��,2.4,-3.2,73.9,0,0.38,10,�쐼,5,30
2015/3/1,11:00:00,14,�k��,1.6,-2,75.1,0,0.34,12,��,3.8,1
2015/3/1,12:00:00,5,���쓌,1.6,-1.4,80.1,0,0.31,16,�k,23.7,30
2015/3/1,13:00:00,5,���쓌,1.8,-1.4,92.1,0,0.27,5,���쓌,2.8,28
2015/3/1,14:00:00,5,���쓌,3.8,-1.4,93.5,0,0.34,5,���쓌,5.1,57
2015/3/1,15:00:00,4,��,2.6,-0.9,97.4,0,0.24,4,��,5,6
2015/3/1,16:00:00,4,��,2.7,-0.9,98.2,0,0.12,3,���k��,4.4,24
2015/3/1,17:00:00,4,��,2.7,-0.1,99.5,0.5,0.04,3,���k��,4.3,31
2015/3/1,18:00:00,5,���쓌,1.9,0.1,100,0.5,0.01,4,��,3.4,10
2015/3/1,19:00:00,6,�쓌,1.7,0.1,100,0.5,0,6,�쓌,3.4,25
2015/3/1,20:00:00,5,���쓌,1.5,-0.1,100,1,0,6,�쓌,2.4,40
2015/3/1,21:00:00,4,��,1.7,-0.1,100,0.5,0,4,��,2,55
2015/3/1,22:00:00,5,���쓌,0.9,0.1,100,0.5,0,4,��,2.5,21
2015/3/1,23:00:00,3,�É�,0,0.2,100,0.5,0,6,�쓌,2.1,11
2015/3/1,0:00:00,14,�É�,0,-0.7,100,1,0,12,�É�,0,0
2015/3/2,1:00:00,14,�É�,0,-2.1,100,1,0,14,�É�,0,0
2015/3/2,2:00:00,14,�É�,0,-2,100,0.5,0,14,�É�,0,0
2015/3/2,3:00:00,14,�É�,0,-2.1,100,0.5,0,14,�É�,0,0
2015/3/2,4:00:00,14,�É�,0,-2,100,0.5,0,13,�É�,0,0
2015/3/2,5:00:00,14,�É�,0,-1.7,100,0.5,0,14,�É�,0,0
2015/3/2,6:00:00,14,�É�,0,-1.4,100,1,0,13,�É�,0,0
2015/3/2,7:00:00,14,�É�,0,-0.9,100,0.5,0.01,14,�É�,0,0
2015/3/2,8:00:00,14,�k��,1,0.3,100,1.5,0.03,13,���k��,7.2,57
2015/3/2,9:00:00,14,�k��,4.3,0.6,100,1.5,0.13,14,�k��,7.4,6
2015/3/2,10:00:00,14,�k��,4.7,1.1,100,2.5,0.26,13,���k��,9.6,37
2015/3/2,11:00:00,14,�k��,6.1,1.4,100,3,0.29,14,�k��,12.2,59
2015/3/2,12:00:00,14,�k��,4,2.4,100,3.5,0.29,12,��,12.4,29
2015/3/2,13:00:00,14,�k��,6.3,3.9,91.2,1.5,0.27,13,���k��,14.1,44
2015/3/2,14:00:00,14,�k��,6.8,3.9,67.8,0.5,0.38,13,���k��,13.9,34
2015/3/2,15:00:00,14,�k��,3.8,3.4,66.8,0,0.37,12,��,12.6,3
2015/3/2,16:00:00,14,�k��,3,3.7,66.1,0,0.31,12,��,8.5,19
2015/3/2,17:00:00,10,�쐼,1,1.7,75.4,0,0.06,13,���k��,25.1,28
2015/3/2,18:00:00,13,���k��,3.9,2.1,71.6,0,0.01,15,�k�k��,6.9,53
2015/3/2,19:00:00,13,���k��,1.7,-1.6,82.1,0,0,13,���k��,7.3,19
2015/3/2,20:00:00,13,���k��,1.5,-3.2,82.4,0,0,12,��,2.8,16
2015/3/2,21:00:00,12,��,4.6,-0.7,67.7,0,0,12,��,7.3,54
2015/3/2,22:00:00,11,���쐼,2.5,-2.3,78.5,0,0,12,��,5.5,0
2015/3/2,23:00:00,13,���k��,1.3,-4,78,0,0,11,���쐼,5,32
2015/3/2,0:00:00,15,�k�k��,1.8,-7.8,78.8,0,0,16,�k,2.9,51
2015/3/3,1:00:00,10,�쐼,1,-10.9,89.9,0,0,10,�쐼,2.9,2
2015/3/3,2:00:00,13,���k��,1.2,-11.8,94.6,0,0,12,��,2.5,49
2015/3/3,3:00:00,13,���k��,1.4,-11.3,93.8,0,0,12,��,2.9,43
2015/3/3,4:00:00,11,���쐼,2.5,-12.3,89.2,0,0,11,���쐼,3.5,51
2015/3/3,5:00:00,9,��쐼,1.3,-12.9,89.2,0,0,12,��,3.2,49
2015/3/3,6:00:00,12,��,1.7,-13,93.3,0,0.01,12,��,3.1,26
2015/3/3,7:00:00,14,�k��,2.2,-11.2,91.5,0,0.08,13,���k��,3.8,13
2015/3/3,8:00:00,12,��,1.5,-10,88.5,0,0.28,11,���쐼,2.3,16
2015/3/3,9:00:00,8,��,0.3,-4.4,74.3,0,0.49,8,��,3.2,53
2015/3/3,10:00:00,10,�쐼,1.1,1.9,58.7,0,0.66,7,��쓌,3.2,59
2015/3/3,11:00:00,10,�쐼,4.1,2.9,55.3,0,0.75,10,�쐼,6.6,50
2015/3/3,12:00:00,10,�쐼,3.7,3.5,57.1,0,0.78,10,�쐼,7,42
2015/3/3,13:00:00,8,��,2.5,3.9,53.1,0,0.74,11,���쐼,5.1,3
2015/3/3,14:00:00,7,��쓌,2.5,3.3,65.1,0,0.62,9,��쐼,4.7,3
2015/3/3,15:00:00,2,�k��,1.4,3.6,68,0,0.37,7,��쓌,4.2,4
2015/3/3,16:00:00,2,�k��,2.1,2.9,67.9,0,0.21,2,�k��,3.6,56
2015/3/3,17:00:00,4,��,1.8,0.9,78.4,0,0.08,3,���k��,3.2,3
2015/3/3,18:00:00,3,���k��,1.7,-0.5,86.8,0,0.01,3,���k��,3.5,42
2015/3/3,19:00:00,1,�k�k��,0.6,-2.4,91.7,0,0,6,�쓌,2.9,31
2015/3/3,20:00:00,13,���k��,1.3,-2.2,85.6,0,0,12,��,2.3,24
2015/3/3,21:00:00,13,���k��,0.9,-2.7,93.1,0,0,13,���k��,4.9,18
2015/3/3,22:00:00,10,�쐼,1,-2.6,93.2,0,0,12,��,2.7,3
2015/3/3,23:00:00,13,���k��,0.8,-2.8,94.7,0,0,13,���k��,1.4,39
2015/3/3,0:00:00,13,���k��,0.9,-3,93.9,0,0,11,���쐼,2.4,45
2015/3/4,1:00:00,12,��,1.7,-2.9,92.1,0,0,12,��,2.2,56
2015/3/4,2:00:00,12,��,1.3,-3.1,89.9,0,0,12,��,2.3,58
2015/3/4,3:00:00,12,��,1.2,-2.3,89.7,0,0,13,���k��,3.4,41
2015/3/4,4:00:00,2,�k��,1.6,-2,97.9,0,0,1,�k�k��,2.2,59
2015/3/4,5:00:00,14,�k��,0.8,-1.7,99.8,0.5,0,2,�k��,2.2,4
2015/3/4,6:00:00,14,�k��,1,-1.5,100,0,0,14,�k��,1.8,20
2015/3/4,7:00:00,1,�k�k��,1.6,-0.9,100,0.5,0.01,3,���k��,4.6,59
2015/3/4,8:00:00,1,�k�k��,1.8,-0.8,100,0.5,0.03,2,�k��,4.8,13
2015/3/4,9:00:00,1,�k�k��,2.8,-0.7,99.9,1,0.05,1,�k�k��,4.6,50
2015/3/4,10:00:00,1,�k�k��,3.8,-0.6,99.9,0,0.09,1,�k�k��,6.3,53
2015/3/4,11:00:00,14,�k��,4,-1.5,99.7,0.5,0.11,1,�k�k��,6.5,55
2015/3/4,12:00:00,14,�k��,5,-1.2,100,0.5,0.13,1,�k�k��,8.2,51
2015/3/4,13:00:00,14,�k��,5.1,-1,100,0,0.11,15,�k�k��,8.3,58
2015/3/4,14:00:00,14,�k��,5,-0.8,100,0,0.14,14,�k��,9,2
2015/3/4,15:00:00,14,�k��,5.5,-0.4,100,0,0.16,14,�k��,10,53
2015/3/4,16:00:00,14,�k��,4.3,0.1,100,0,0.27,14,�k��,10,46
2015/3/4,17:00:00,14,�k��,3.7,-0.7,98.2,2.5,0.07,4,��,9.1,1
2015/3/4,18:00:00,14,�k��,2.7,-2.6,97,1.5,0.01,14,�k��,6.1,4
2015/3/4,19:00:00,13,���k��,2.2,-8.8,96.3,1,0,13,���k��,4.6,24
2015/3/4,20:00:00,11,���쐼,1.9,-10.8,96.3,0.5,0,12,��,3,41
2015/3/4,21:00:00,12,��,1.5,-11.3,96.2,0,0,11,���쐼,2,13
2015/3/4,22:00:00,11,���쐼,2.3,-8.1,98.5,0,0,12,��,2.9,58
2015/3/4,23:00:00,13,���k��,1.9,-6.3,97.9,0,0,12,��,3.7,53
2015/3/4,0:00:00,2,�k��,0.7,-10,96,0,0,12,��,3.6,20
2015/3/5,1:00:00,12,��,1.2,-11.1,96.4,0,0,12,��,4.3,59
2015/3/5,2:00:00,12,��,5.9,-1.4,100,0,0,1,�k�k��,8.7,54
2015/3/5,3:00:00,14,�k��,1.6,-5,98.5,0,0,12,��,7.8,1
2015/3/5,4:00:00,15,�k�k��,0.9,-6.3,98.1,0,0,10,�쐼,2.7,31
2015/3/5,5:00:00,12,��,1.1,-7.7,97.5,0,0,1,�k�k��,2.5,44
2015/3/5,6:00:00,14,�k��,1.8,-3.7,99.3,0,0,14,�k��,3.8,46
2015/3/5,7:00:00,13,���k��,1,-3.4,99,0,0.04,15,�k�k��,3.7,2
2015/3/5,8:00:00,13,���k��,1.8,-1.2,99.1,0,0.22,13,���k��,2.4,51
2015/3/5,9:00:00,13,���k��,0.7,0.5,96.3,0.5,0.37,13,���k��,2.4,30
2015/3/5,10:00:00,7,�É�,0.1,2,89.4,1,0.65,14,�k��,2.5,4
2015/3/5,11:00:00,5,���쓌,1.1,2.7,80.4,2,0.68,6,�쓌,3.2,33
2015/3/5,12:00:00,7,��쓌,2.1,2.2,78.2,3,0.73,2,�k��,4.2,13
2015/3/5,13:00:00,7,��쓌,2.3,2.3,73.6,2.5,0.71,7,��쓌,4,42
2015/3/5,14:00:00,7,��쓌,2.3,2.2,75.9,0,0.63,7,��쓌,4.1,4
2015/3/5,15:00:00,8,��,2.9,1.4,80.3,0,0.52,8,��,5.5,27
2015/3/5,16:00:00,8,��,1.7,0.8,83.2,0,0.29,8,��,4.3,13
2015/3/5,17:00:00,8,��,1.2,-0.7,87.3,0,0.12,8,��,3.8,11
2015/3/5,18:00:00,6,�É�,0,-2,94.2,0,0.01,9,��쐼,25.7,13
2015/3/5,19:00:00,1,�É�,0.1,-4.6,96.5,0,0,3,���k��,1.7,27
2015/3/5,20:00:00,12,��,1,-4.5,97.6,0,0,15,�k�k��,3.1,10
2015/3/5,21:00:00,12,��,1.3,-8.5,95.1,0,0,13,���k��,1.7,58
2015/3/5,22:00:00,2,�k��,0.8,-4.6,97.3,0,0,15,�k�k��,2.2,40
2015/3/5,23:00:00,3,���k��,1.3,-2.7,95.6,0,0,2,�k��,2.2,7
2015/3/5,0:00:00,3,���k��,1.5,-2.6,92.7,0,0,3,���k��,2.7,34
2015/3/6,1:00:00,13,���k��,0.5,-3.3,94,0,0,3,���k��,1.8,15
2015/3/6,2:00:00,15,�k�k��,0.3,-3.1,95.6,0,0,14,�k��,7,18
2015/3/6,3:00:00,1,�É�,0.2,-3.3,96.2,0,0,15,�k�k��,2.5,47
2015/3/6,4:00:00,13,���k��,0.4,-3.4,95.6,0,0,11,���쐼,3.5,1
2015/3/6,5:00:00,13,���k��,0.3,-3.7,96,0,0,14,�k��,1.6,40
2015/3/6,6:00:00,12,��,0.4,-3.5,95.6,0,0,13,���k��,1.4,36
2015/3/6,7:00:00,15,�k�k��,0.3,-3.4,94.5,0,0.03,14,�k��,2.6,55
2015/3/6,8:00:00,2,�k��,2.1,-2.3,94.8,0,0.1,3,���k��,2.8,54
2015/3/6,9:00:00,2,�k��,1.3,-1.6,93.9,0,0.21,2,�k��,2.4,0
2015/3/6,10:00:00,3,���k��,1.6,-1,94.2,0,0.39,4,��,3.3,31
2015/3/6,11:00:00,4,��,2.1,0.3,91.8,0,0.52,4,��,3.3,59
2015/3/6,12:00:00,5,���쓌,3.2,0.1,90,0,0.61,5,���쓌,5.3,38
2015/3/6,13:00:00,6,�쓌,2.9,0.3,87.5,0,0.57,5,���쓌,4.9,11
2015/3/6,14:00:00,6,�쓌,3.3,0.2,91,0,0.45,5,���쓌,5.4,45
2015/3/6,15:00:00,6,�쓌,2.9,0.2,92.9,0,0.3,6,�쓌,5.1,37
2015/3/6,16:00:00,6,�쓌,2.6,-0.1,94.5,0,0.16,6,�쓌,4.7,5
2015/3/6,17:00:00,7,��쓌,2.2,-0.2,94.5,0,0.04,6,�쓌,3.7,50
2015/3/6,18:00:00,6,�쓌,1.9,-0.3,95.1,0,0.01,7,��쓌,4.2,1
2015/3/6,19:00:00,5,���쓌,1.8,-0.3,94.7,0,0,6,�쓌,3.4,8
2015/3/6,20:00:00,3,���k��,1.4,-0.3,94.9,0,0,4,��,3.5,5
2015/3/6,21:00:00,3,���k��,1.9,-0.4,96.4,0,0,3,���k��,3.1,44
2015/3/6,22:00:00,2,�k��,1.5,-0.4,96.6,0,0,2,�k��,2.3,50
2015/3/6,23:00:00,2,�k��,1.2,-0.4,97,0,0,1,�k�k��,2.5,34
2015/3/6,0:00:00,14,�k��,1.4,-0.5,98.2,0,0,2,�k��,2.3,59
2015/3/7,1:00:00,1,�k�k��,1.3,-1.2,98.3,0,0,14,�k��,2.9,41
2015/3/7,2:00:00,14,�k��,1.4,-1,99.1,0,0,13,���k��,2.2,58
2015/3/7,3:00:00,14,�k��,0.9,-0.9,98,0,0,14,�k��,2.5,14
2015/3/7,4:00:00,11,�É�,0.2,-1.8,99.2,0,0,14,�k��,2.4,16
2015/3/7,5:00:00,12,��,0.9,-1.5,99.2,0,0,6,�쓌,3,8
2015/3/7,6:00:00,15,�k�k��,0.5,-1.7,98.2,0,0.01,14,�k��,3.5,15
2015/3/7,7:00:00,14,�k��,2.2,-1.2,97.3,0,0.04,14,�k��,3.5,51
2015/3/7,8:00:00,5,�É�,0,-1.2,88.9,0,0.18,14,�k��,3,4
2015/3/7,9:00:00,12,��,0.7,0.6,89.2,0,0.3,12,��,25.5,35
2015/3/7,10:00:00,7,��쓌,1.6,1,93,0,0.37,8,��,3,32
2015/3/7,11:00:00,7,��쓌,2.2,1.3,89.6,0,0.55,6,�쓌,3.7,55
2015/3/7,12:00:00,7,��쓌,2.8,1.2,89,0,0.54,7,��쓌,5.3,34
2015/3/7,13:00:00,7,��쓌,2.7,1.6,86.2,0,0.58,6,�쓌,5.7,16
2015/3/7,14:00:00,6,�쓌,2.6,1.7,85.7,0,0.45,6,�쓌,6.2,40
2015/3/7,15:00:00,8,��,1.3,1.2,88.4,0,0.28,7,��쓌,5.7,5
2015/3/7,16:00:00,7,��쓌,2.3,1.1,87.1,0,0.08,9,��쐼,6.3,37
2015/3/7,17:00:00,9,��쐼,1.6,0.4,95.1,0,0.03,9,��쐼,4.6,14
2015/3/7,18:00:00,12,��,1,0.3,97.6,0.5,0.01,8,��,3.4,34
2015/3/7,19:00:00,11,���쐼,1.5,0.3,97.7,0,0,8,��,3.5,27
2015/3/7,20:00:00,10,�쐼,1.3,0.5,96.4,0.5,0,9,��쐼,4.5,19
2015/3/7,21:00:00,5,���쓌,0.7,0.2,99.6,0.5,0,10,�쐼,2.2,13
2015/3/7,22:00:00,11,�É�,0.2,0.2,100,0.5,0,1,�k�k��,23.7,50
2015/3/7,23:00:00,3,���k��,0.6,0.2,100,1,0,10,�쐼,2.5,1
2015/3/7,0:00:00,1,�k�k��,0.9,0.2,100,0.5,0,3,���k��,2,43
2015/3/8,1:00:00,2,�k��,0.9,0.2,100,0.5,0,2,�k��,2,36
2015/3/8,2:00:00,1,�k�k��,1.2,0.2,100,0.5,0,1,�k�k��,1.7,54
2015/3/8,3:00:00,1,�k�k��,1,0.2,100,0,0,2,�k��,2.2,30
2015/3/8,4:00:00,4,�É�,0,0.1,100,0.5,0,15,�k�k��,1.7,36
2015/3/8,5:00:00,16,�É�,0,0.1,100,0,0,15,�É�,0,0
2015/3/8,6:00:00,16,�É�,0,0.2,100,0,0,15,�É�,0,0
2015/3/8,7:00:00,16,�k,1.1,0.5,100,0,0.02,1,�k�k��,1.9,53
2015/3/8,8:00:00,1,�k�k��,1.4,0.6,100,0,0.08,1,�k�k��,2.3,49
2015/3/8,9:00:00,2,�k��,1.2,0.9,100,0,0.18,2,�k��,2.2,20
2015/3/8,10:00:00,3,���k��,1.4,1.5,100,0,0.26,3,���k��,2.1,48
2015/3/8,11:00:00,3,���k��,0.7,2.1,100,0,0.39,4,��,2.5,27
2015/3/8,12:00:00,5,���쓌,3,1.5,100,0,0.43,4,��,3.7,58
2015/3/8,13:00:00,3,���k��,3.4,1.2,98.6,0,0.45,3,���k��,4.6,55
2015/3/8,14:00:00,4,��,3.4,1.3,99,0,0.35,5,���쓌,5,48
2015/3/8,15:00:00,3,���k��,2.7,0.9,99.9,0,0.25,3,���k��,4,42
2015/3/8,16:00:00,3,���k��,1.8,0.9,100,0,0.14,3,���k��,3.4,17
2015/3/8,17:00:00,2,�k��,1.7,0.9,100,0,0.05,3,���k��,3,23
2015/3/8,18:00:00,7,��쓌,0.6,0.7,100,0,0.01,14,�k��,2.7,26
2015/3/8,19:00:00,16,�k,0.4,0.5,100,0,0,16,�k,2.5,53
2015/3/8,20:00:00,14,�k��,1.1,1,100,0,0,16,�k,2.5,22
2015/3/8,21:00:00,9,�É�,0,0.7,100,0,0,9,��쐼,4.6,41
2015/3/8,22:00:00,2,�k��,0.7,0.8,100,0,0,8,��,1.9,24
2015/3/8,23:00:00,4,��,0.6,0.9,100,0,0,6,�쓌,1.9,46
2015/3/8,0:00:00,13,���k��,0.6,0.3,100,0,0,1,�k�k��,2.9,7
2015/3/9,1:00:00,14,�k��,1.5,0.7,100,0,0,13,���k��,3.1,42
2015/3/9,2:00:00,15,�k�k��,0.5,0.5,100,0,0,16,�k,1.9,0
2015/3/9,3:00:00,14,�k��,1.4,0.8,100,0,0,1,�k�k��,2.3,59
2015/3/9,4:00:00,13,���k��,0.8,0.6,100,0,0,14,�k��,2.5,11
2015/3/9,5:00:00,15,�k�k��,0.6,0.9,100,0,0,13,���k��,3,36
2015/3/9,6:00:00,14,�k��,1.1,0.8,100,0,0,14,�k��,2,53
2015/3/9,7:00:00,14,�k��,2.3,0.9,99.8,0,0.02,14,�k��,3.7,42
2015/3/9,8:00:00,13,���k��,2.4,0.9,96.2,0,0.06,13,���k��,4.4,21
2015/3/9,9:00:00,15,�k�k��,1.8,1.4,92,0,0.11,13,���k��,4.6,6
2015/3/9,10:00:00,15,�k�k��,1.1,2,91.2,0,0.17,14,�k��,2.8,37
2015/3/9,11:00:00,1,�É�,0.2,2.8,90.4,0,0.33,14,�k��,2.2,0
2015/3/9,12:00:00,3,���k��,2.2,2.8,92.3,0,0.55,2,�k��,3.4,42
2015/3/9,13:00:00,3,���k��,3.1,2.6,90.3,0,0.46,3,���k��,4.2,59
2015/3/9,14:00:00,2,�k��,3,2.4,89.7,0,0.33,3,���k��,5.4,38
2015/3/9,15:00:00,3,���k��,3.6,1.8,90.7,0,0.19,3,���k��,6,52
2015/3/9,16:00:00,2,�k��,2.7,2,90.9,0,0.09,3,���k��,5,5
2015/3/9,17:00:00,3,���k��,3.7,1.3,97.7,0,0.03,3,���k��,5.8,27
2015/3/9,18:00:00,2,�k��,2.3,1.2,100,0,0.01,2,�k��,4.9,33
2015/3/9,19:00:00,2,�k��,2.6,1.2,100,0,0,3,���k��,6.5,19
2015/3/9,20:00:00,15,�k�k��,1.2,1.1,100,1,0,2,�k��,3.8,0
2015/3/9,21:00:00,14,�k��,2,1,100,1.5,0,13,���k��,3.1,59
2015/3/9,22:00:00,15,�k�k��,2.1,0.9,100,0.5,0,14,�k��,4.6,2
2015/3/9,23:00:00,13,���k��,2.3,0.9,100,1.5,0,12,��,3,50
2015/3/9,0:00:00,14,�k��,1.7,1.1,100,1,0,14,�k��,3.6,46
2015/3/10,1:00:00,14,�k��,1,1.1,100,1.5,0,14,�k��,2.9,25
2015/3/10,2:00:00,5,���쓌,3.2,2.3,100,1.5,0,6,�쓌,6.6,47
2015/3/10,3:00:00,4,��,2.5,2.1,100,0,0,4,��,5.2,39
2015/3/10,4:00:00,4,��,6.7,1.9,98.9,0,0,4,��,11.3,11
2015/3/10,5:00:00,3,���k��,5.4,1.4,97.8,0,0,4,��,9.8,13
2015/3/10,6:00:00,3,���k��,6.4,1.4,97.9,0,0,4,��,9.5,22
2015/3/10,7:00:00,3,���k��,7.8,1.4,97,0,0.01,3,���k��,11.8,43
2015/3/10,8:00:00,3,���k��,8.3,1.6,96.6,0,0.02,3,���k��,12.4,48
2015/3/10,9:00:00,3,���k��,8.2,1.5,98,1.5,0.03,3,���k��,13.1,40
2015/3/10,10:00:00,3,���k��,8.7,1.7,99,3,0.04,3,���k��,14.6,16
2015/3/10,11:00:00,3,���k��,9.2,1.6,99.5,5.5,0.03,3,���k��,14.5,45
2015/3/10,12:00:00,3,���k��,7.5,1.6,99.5,4.5,0.03,3,���k��,14,45
2015/3/10,13:00:00,2,�k��,5.6,1.7,99.3,3,0.03,3,���k��,12.2,0
2015/3/10,14:00:00,1,�k�k��,6.2,1.7,98.1,4.5,0.02,2,�k��,11.3,9
2015/3/10,15:00:00,15,�k�k��,4.4,1.1,98.3,5,0.02,1,�k�k��,9.8,4
2015/3/10,16:00:00,14,�k��,5.6,0.7,99.4,9,0.02,14,�k��,10.5,48
2015/3/10,17:00:00,14,�k��,6.3,0.8,99.9,2,0.02,14,�k��,10.8,38
2015/3/10,18:00:00,14,�k��,4.4,0.9,99.7,1,0.01,13,���k��,11,28
2015/3/10,19:00:00,12,��,6.4,1.7,93.5,3.5,0,12,��,12.3,36
2015/3/10,20:00:00,11,���쐼,8.9,1.7,83.6,1.5,0,11,���쐼,14.1,53
2015/3/10,21:00:00,10,�쐼,5.5,1.9,80.1,1.5,0,11,���쐼,12.8,24
2015/3/10,22:00:00,9,��쐼,4.5,1.3,84.3,1,0,9,��쐼,11.5,27
2015/3/10,23:00:00,9,��쐼,4.4,0.9,90.6,1,0,9,��쐼,10.4,10
2015/3/10,0:00:00,9,��쐼,4.8,0.6,96.2,1,0,8,��,9.3,42
2015/3/11,1:00:00,9,��쐼,4.6,0.2,87.3,0.5,0,9,��쐼,9.6,29
2015/3/11,2:00:00,9,��쐼,4.5,-0.6,84.4,0.5,0,10,�쐼,9.9,59
2015/3/11,3:00:00,9,��쐼,4.8,-1.2,91.4,0.5,0,8,��,9.7,53
2015/3/11,4:00:00,9,��쐼,4.3,-1.4,88.3,0,0,9,��쐼,9.2,33
2015/3/11,5:00:00,8,��,4.5,-1.8,91.1,0,0,9,��쐼,9.6,20
2015/3/11,6:00:00,8,��,3.7,-1.5,88.8,0.5,0.01,9,��쐼,8.5,28
2015/3/11,7:00:00,8,��,4.1,-1.5,88.5,0,0.04,8,��,7.9,47
2015/3/11,8:00:00,8,��,3.6,-1.4,95.1,0.5,0.12,8,��,7.2,47
2015/3/11,9:00:00,9,��쐼,4.7,-1.2,92,0.5,0.21,10,�쐼,9.3,55
2015/3/11,10:00:00,9,��쐼,4.7,-1.3,95.4,1,0.25,9,��쐼,10.5,11
2015/3/11,11:00:00,10,�쐼,7.5,-0.7,92.7,1,0.41,10,�쐼,12.2,48
2015/3/11,12:00:00,9,��쐼,5.2,-0.7,93.4,1,0.4,10,�쐼,12.3,5
2015/3/11,13:00:00,9,��쐼,5.1,-0.5,86.3,1,0.41,9,��쐼,9.4,52
2015/3/11,14:00:00,10,�쐼,5.3,-0.9,92.1,0.5,0.45,9,��쐼,10.7,36
2015/3/11,15:00:00,10,�쐼,5.5,-1.1,91.5,1,0.23,10,�쐼,9.7,44
2015/3/11,16:00:00,9,��쐼,2.1,-1.1,89.1,0.5,0.12,10,�쐼,8.3,9
2015/3/11,17:00:00,8,��,3.2,-1.5,83.7,0.5,0.08,9,��쐼,7.1,24
2015/3/11,18:00:00,8,��,2.6,-2.2,87.6,0,0.01,10,�쐼,7,5
2015/3/11,19:00:00,8,��,2.5,-2.5,91.2,0.5,0,8,��,5.8,48
2015/3/11,20:00:00,7,��쓌,2.4,-2.6,92.4,0,0,6,�쓌,4.1,59
2015/3/11,21:00:00,7,��쓌,3.7,-2.6,90.5,0.5,0,9,��쐼,5.8,58
2015/3/11,22:00:00,7,��쓌,4,-2.5,92.6,0,0,8,��,8.2,42
2015/3/11,23:00:00,8,��,3.5,-2.6,86.9,0,0,7,��쓌,7.4,3
2015/3/11,0:00:00,8,��,4.9,-2.5,89.2,0,0,7,��쓌,8.4,55
2015/3/12,1:00:00,8,��,3.8,-2.5,86.5,0,0,8,��,9.6,41
2015/3/12,2:00:00,9,��쐼,3.8,-2,80.1,0,0,9,��쐼,6.8,57
2015/3/12,3:00:00,10,�쐼,6.9,-2.3,82,0,0,10,�쐼,12.4,35
2015/3/12,4:00:00,10,�쐼,6,-2,82.3,0,0,9,��쐼,13.2,13
2015/3/12,5:00:00,10,�쐼,6.2,-2.4,86.4,0,0,9,��쐼,14,36
2015/3/12,6:00:00,10,�쐼,12.4,-2.5,95.7,0,0.01,10,�쐼,16.6,58
2015/3/12,7:00:00,10,�쐼,7.4,-1.3,87.3,0,0.16,9,��쐼,16.7,7
2015/3/12,8:00:00,10,�쐼,6.1,-0.3,76.5,0,0.35,11,���쐼,11.2,38
2015/3/12,9:00:00,10,�쐼,4.8,1.1,66.8,0,0.58,11,���쐼,11.9,43
2015/3/12,10:00:00,10,�쐼,6,1.2,63.5,0.5,0.72,10,�쐼,13.5,57
2015/3/12,11:00:00,11,���쐼,7.1,1.6,64.4,0.5,0.76,10,�쐼,12.9,50
2015/3/12,12:00:00,11,���쐼,4.8,2,57.4,0.5,0.86,10,�쐼,10.7,4
2015/3/12,13:00:00,10,�쐼,5.2,2,59.4,0.5,0.73,10,�쐼,10.3,14
2015/3/12,14:00:00,10,�쐼,4.8,1.7,62.3,1,0.55,10,�쐼,8.3,38
2015/3/12,15:00:00,10,�쐼,4.3,1.3,67,1,0.41,10,�쐼,6.4,19
2015/3/12,16:00:00,11,���쐼,5.4,0.7,69.9,0,0.25,11,���쐼,9.4,44
2015/3/12,17:00:00,10,�쐼,6,0.1,70.6,0.5,0.09,10,�쐼,9.5,55
2015/3/12,18:00:00,10,�쐼,2.6,-0.5,71.3,0,0.01,10,�쐼,8.2,24
2015/3/12,19:00:00,10,�쐼,2.8,-1.1,73.4,0,0,10,�쐼,6.3,41
2015/3/12,20:00:00,9,��쐼,2.6,-1.3,77.2,0,0,9,��쐼,4,51
2015/3/12,21:00:00,9,��쐼,3.1,-1.8,85.6,0,0,8,��,5.3,20
2015/3/12,22:00:00,9,��쐼,2.9,-1.2,74.2,0,0,8,��,5.3,3
2015/3/12,23:00:00,9,��쐼,4.5,-0.9,71.7,0,0,9,��쐼,8,59
2015/3/12,0:00:00,9,��쐼,3.2,-1,74.8,0,0,9,��쐼,7.4,3
2015/3/13,1:00:00,9,��쐼,3.3,-1.1,76.4,0,0,8,��,5.6,44
2015/3/13,2:00:00,9,��쐼,3.7,-0.9,79.8,0,0,9,��쐼,6.5,31
2015/3/13,3:00:00,9,��쐼,4.3,-0.8,79.3,0,0,9,��쐼,8,44
2015/3/13,4:00:00,9,��쐼,6.7,-0.6,79.2,0,0,9,��쐼,10.4,52
2015/3/13,5:00:00,9,��쐼,7.4,-0.9,82.2,0,0,9,��쐼,11.2,23
2015/3/13,6:00:00,9,��쐼,6.4,-1.1,86.8,0,0.01,10,�쐼,11.4,7
2015/3/13,7:00:00,9,��쐼,5,-0.8,84.5,0,0.06,10,�쐼,9.8,27
2015/3/13,8:00:00,9,��쐼,4.3,0.4,79.8,0,0.24,9,��쐼,8.4,7
2015/3/13,9:00:00,9,��쐼,4.1,1.2,74.5,0,0.24,9,��쐼,8.5,31
2015/3/13,10:00:00,10,�쐼,4.6,2.6,70.2,0.5,0.5,10,�쐼,8.2,6
2015/3/13,11:00:00,10,�쐼,3.9,3.9,66.5,0.5,0.77,10,�쐼,7.3,2
2015/3/13,12:00:00,10,�쐼,5.8,4.2,61.8,1.5,0.83,12,��,9.8,36
2015/3/13,13:00:00,11,���쐼,5.9,4.5,57.6,1.5,0.84,11,���쐼,9.2,40
2015/3/13,14:00:00,10,�쐼,5.3,4.1,62.9,1,0.65,11,���쐼,8.9,46
2015/3/13,15:00:00,11,���쐼,6.3,4,63.8,0.5,0.6,11,���쐼,11.2,43
2015/3/13,16:00:00,11,���쐼,4.9,3.7,64.7,1,0.43,10,�쐼,10.5,3
2015/3/13,17:00:00,11,���쐼,4.6,2.8,67.9,0,0.18,11,���쐼,9,34
2015/3/13,18:00:00,11,���쐼,3.9,1.4,74.7,0,0.01,11,���쐼,7.5,0
2015/3/13,19:00:00,14,�k��,1.9,1.1,77.8,0.5,0,10,�쐼,7.3,4
2015/3/13,20:00:00,12,��,3.5,-0.6,87.4,0,0,12,��,4.4,53
2015/3/13,21:00:00,13,���k��,2.5,-2.1,89.5,0,0,12,��,4.7,18
2015/3/13,22:00:00,8,�É�,0.1,-4.5,93.3,0,0,3,���k��,3.3,7
2015/3/13,23:00:00,12,��,0.8,-4.8,96.7,0,0,12,��,2.2,34
2015/3/13,0:00:00,13,���k��,1.9,-3.8,97.9,0,0,12,��,2.9,57
2015/3/14,1:00:00,12,��,1.5,-5.4,96.3,0,0,12,��,2.8,48
2015/3/14,2:00:00,12,��,1.6,-5.6,96.9,0,0,10,�쐼,3.5,8
2015/3/14,3:00:00,13,���k��,1.7,-5.4,95.2,0,0,13,���k��,4.4,5
2015/3/14,4:00:00,13,���k��,2.7,-6.2,97.1,0,0,1,�k�k��,4.1,54
2015/3/14,5:00:00,12,��,2.1,-6.3,93.4,0,0,16,�k,3.4,40
2015/3/14,6:00:00,12,��,1.7,-7.6,93.7,0,0.01,11,���쐼,3.7,5
2015/3/14,7:00:00,14,�k��,2.1,-3.6,80.2,0,0.15,10,�쐼,3.3,27
2015/3/14,8:00:00,13,���k��,2.5,-1.6,71.3,0,0.37,13,���k��,5.1,24
2015/3/14,9:00:00,14,�k��,3.4,2,58.6,0,0.57,14,�k��,5.4,52
2015/3/14,10:00:00,14,�k��,3.4,3.2,47.7,0,0.72,8,��,7.5,44
2015/3/14,11:00:00,14,�k��,3,3.8,50.1,0.5,0.82,16,�k,7.3,24
2015/3/14,12:00:00,15,�k�k��,2.5,4.3,44.9,0.5,0.86,1,�k�k��,7.3,27
2015/3/14,13:00:00,10,�쐼,2.9,3.8,57.9,0.5,0.83,7,��쓌,7.1,38
2015/3/14,14:00:00,7,��쓌,3.1,2.5,73.7,0,0.74,7,��쓌,5.4,25
2015/3/14,15:00:00,5,���쓌,2.9,2.4,76.5,0,0.54,7,��쓌,5.4,1
2015/3/14,16:00:00,11,���쐼,2.1,2.5,66.6,0,0.39,7,��쓌,5,7
2015/3/14,17:00:00,11,���쐼,2.7,2.2,69.9,0,0.19,10,�쐼,4.4,49
2015/3/14,18:00:00,14,�k��,1.8,1.8,69.4,0,0.02,11,���쐼,3.5,11
2015/3/14,19:00:00,14,�k��,2.2,0.5,76.7,0,0,14,�k��,3.4,43
2015/3/14,20:00:00,13,���k��,2.5,-1.4,82.9,0,0,13,���k��,3.6,56
2015/3/14,21:00:00,13,���k��,3,-1.4,86,0,0,13,���k��,4.2,59
2015/3/14,22:00:00,12,��,2.9,-3.4,90.7,0,0,13,���k��,4.2,12
2015/3/14,23:00:00,13,���k��,1.5,-4.2,88,0,0,8,��,4.2,5
2015/3/14,0:00:00,11,���쐼,2.5,-4.6,89.8,0,0,12,��,4,41
2015/3/15,1:00:00,12,��,1.9,-4.6,91.7,0,0,13,���k��,3.2,45
2015/3/15,2:00:00,11,���쐼,2.2,-4.6,92,0,0,12,��,3.5,11
2015/3/15,3:00:00,11,���쐼,1.9,-5,88.3,0,0,12,��,3.6,23
2015/3/15,4:00:00,12,��,1.8,-6.8,91.8,0,0,13,���k��,3.7,30
2015/3/15,5:00:00,11,���쐼,3,-7.2,90.6,0,0,12,��,3.8,51
2015/3/15,6:00:00,11,���쐼,2.5,-7.9,93.2,0,0.01,9,��쐼,3.2,54
2015/3/15,7:00:00,13,���k��,0.5,-5.8,84.8,0,0.13,12,��,3.3,4
2015/3/15,8:00:00,14,�É�,0.1,-2.9,78.8,0,0.35,7,��쓌,3.5,58
2015/3/15,9:00:00,2,�k��,0.7,1.6,68.6,0,0.56,7,��쓌,3.1,7
2015/3/15,10:00:00,5,���쓌,1.1,3.9,69.9,0,0.69,5,���쓌,2.2,59
2015/3/15,11:00:00,5,���쓌,1.7,3.2,69.2,0,0.77,6,�쓌,3.8,32
2015/3/15,12:00:00,5,���쓌,2.9,3.1,70.8,0,0.83,5,���쓌,4.6,49
2015/3/15,13:00:00,5,���쓌,1.7,3.4,73.5,0,0.84,4,��,4.3,14
2015/3/15,14:00:00,4,��,1.1,3,78.5,0,0.7,4,��,2.4,36
2015/3/15,15:00:00,5,���쓌,2,2,84.2,0,0.49,5,���쓌,3.4,45
2015/3/15,16:00:00,9,��쐼,1.3,3.8,68.2,0,0.29,9,��쐼,2.4,54
2015/3/15,17:00:00,11,���쐼,2.8,2.8,67.4,0,0.19,10,�쐼,6.4,43
2015/3/15,18:00:00,9,��쐼,2.2,2.2,64.6,0,0.02,10,�쐼,4.6,0
2015/3/15,19:00:00,10,�쐼,1.6,0.3,73.7,0,0,9,��쐼,3.4,0
2015/3/15,20:00:00,10,�쐼,2.6,0.7,72.2,0,0,10,�쐼,3.6,56
2015/3/15,21:00:00,10,�쐼,1.9,-1.3,78.4,0,0,16,�k,3.9,22
2015/3/15,22:00:00,13,���k��,1.3,-2.9,81.6,0,0,10,�쐼,4.4,32
2015/3/15,23:00:00,13,���k��,1.8,-4.2,89.8,0,0,14,�k��,3.1,56
2015/3/15,0:00:00,13,���k��,1.4,-5.3,90.1,0,0,11,���쐼,2.7,4
2015/3/16,1:00:00,12,��,1.4,-5.8,89.9,0,0,9,��쐼,4.7,7
2015/3/16,2:00:00,12,��,1.6,-4.7,90.3,0,0,3,���k��,6.9,18
2015/3/16,3:00:00,12,��,1.6,-4.8,90.4,0,0,12,��,3.2,26
2015/3/16,4:00:00,12,��,1.7,-5.7,93.2,0,0,12,��,2.6,6
2015/3/16,5:00:00,13,���k��,1.7,-4.7,91.6,0,0,12,��,3.5,46
2015/3/16,6:00:00,12,��,1.6,-5.3,94.6,0,0.01,10,�쐼,2.9,21
2015/3/16,7:00:00,12,��,2,-4,92.2,0,0.06,12,��,2.9,58
2015/3/16,8:00:00,14,�k��,0.3,-1.4,85,0,0.28,14,�k��,2.9,54
2015/3/16,9:00:00,2,�k��,1.6,2.4,72.8,0,0.49,2,�k��,2.3,53
2015/3/16,10:00:00,2,�k��,1.3,2.9,79.3,0,0.65,2,�k��,2.5,36
2015/3/16,11:00:00,2,�k��,1.4,4.9,73.9,0,0.76,2,�k��,4.2,13
2015/3/16,12:00:00,4,��,2,4.7,76.3,0,0.82,3,���k��,3.1,12
2015/3/16,13:00:00,4,��,2.1,4.9,76,0,0.8,4,��,3,41
2015/3/16,14:00:00,2,�k��,2,4.1,74.2,0,0.71,5,���쓌,3.1,14
2015/3/16,15:00:00,2,�k��,1.6,4,79.7,0,0.56,3,���k��,3.3,18
2015/3/16,16:00:00,4,��,1.5,3.7,80.2,0,0.37,3,���k��,2.9,8
2015/3/16,17:00:00,4,�É�,0.2,4,83,0,0.16,2,�k��,2.7,16
2015/3/16,18:00:00,14,�k��,0.9,2.9,75.2,0,0.02,11,���쐼,3.4,34
2015/3/16,19:00:00,11,���쐼,0.9,-1.1,88.3,0,0,6,�쓌,9.2,50
2015/3/16,20:00:00,11,���쐼,1.6,-0.4,89,0,0,11,���쐼,2.9,32
2015/3/16,21:00:00,12,��,0.8,-1.4,90.1,0,0,12,��,2.1,30
2015/3/16,22:00:00,11,���쐼,2,-1.5,89,0,0,12,��,3.8,49
2015/3/16,23:00:00,12,��,0.5,-1.5,89.8,0,0,12,��,3.8,12
2015/3/16,0:00:00,9,��쐼,1.1,1,86.5,0,0,3,���k��,4.6,10
2015/3/17,1:00:00,8,��,3.3,3.7,77.7,0,0,5,���쓌,5.1,55
2015/3/17,2:00:00,8,��,2.3,3.3,80.6,0,0,8,��,6.7,25
2015/3/17,3:00:00,6,�쓌,0.7,2.9,77.4,0,0,8,��,4,10
2015/3/17,4:00:00,8,��,1.1,0.5,79.4,0,0,9,��쐼,3.2,48
2015/3/17,5:00:00,8,��,0.7,-0.5,87.1,0,0,13,���k��,2.4,35
2015/3/17,6:00:00,4,��,1.4,-0.9,87.8,0,0.01,7,��쓌,2.5,19
2015/3/17,7:00:00,10,�쐼,1.1,-0.6,93,0,0.08,12,��,3.1,37
2015/3/17,8:00:00,9,��쐼,4.2,2.9,86.6,0,0.21,9,��쐼,8.3,49
2015/3/17,9:00:00,9,��쐼,1.2,3.9,85.3,0,0.43,10,�쐼,7.3,8
2015/3/17,10:00:00,14,�k��,1.6,4.2,72.5,0,0.64,8,��,3.1,0
2015/3/17,11:00:00,5,���쓌,2.2,5.9,76.5,0,0.67,6,�쓌,3,51
2015/3/17,12:00:00,7,��쓌,2.1,5.9,71.4,0,0.79,8,��,3.4,55
2015/3/17,13:00:00,3,���k��,1.5,6.2,70.8,0,0.67,2,�k��,6.3,20
2015/3/17,14:00:00,4,��,2.5,5,76.1,0,0.67,2,�k��,5.2,9
2015/3/17,15:00:00,2,�k��,1.4,5.5,70.4,0,0.5,4,��,3.4,0
2015/3/17,16:00:00,13,�É�,0.2,4,74.1,0,0.32,2,�k��,2.2,35
2015/3/17,17:00:00,7,�É�,0.2,4.2,70.6,0,0.12,7,��쓌,1.2,45
2015/3/17,18:00:00,11,���쐼,4.2,6.3,62.5,0,0.01,10,�쐼,6.5,49
2015/3/17,19:00:00,12,��,6,7.3,59,0,0,11,���쐼,10.2,47
2015/3/17,20:00:00,11,���쐼,2.5,5.8,68.5,0,0,13,���k��,8.5,1
2015/3/17,21:00:00,11,���쐼,0.8,2.5,79.6,0,0,11,���쐼,2.9,1
2015/3/17,22:00:00,1,�k�k��,0.8,2.3,83.7,0,0,12,��,2.9,7